Back to catalog

STARLINK-3290

AliveCommunicationsVLEO
NORAD 50828·PAYLOAD·🇺🇸 United States

Launched Jan 6, 2022 from Cape Canaveral Space Force Station

Loading…

Next Passes (next 24 hours)

TLE

FreshSource: CelesTrak SupGP

Epoch: Sep 15, 2026, 02:20 UTC

1 50828C 22001AB  26258.09770833 -.00043828  00000+0 -14096-2 0  2584
2 50828  53.1593  28.9562 0001067  85.7316 147.7150 15.31720611    10

Track STARLINK-3290 in real time with AllMySat

Download on the App Store